Terminal Aerodrome Forecast
Issued by NWS

Home | Current Version | Previous Version | Text Only | Print | Product List | Glossary On
Versions: 1 2 3 4 5 6 7 8 9 10 11 12 13 14 15 16 17 18 19 20 21 22 23 24 25 26 27 28 29 30 31 32 33 34 35 36 37 38 39 40 41 42 43 44 45 46 47 48 49 50
701
FTUS45 KBOU 192307 AAD
TAFBJC
TAF AMD
KBJC 192307Z 1923/2018 28014G22KT P6SM BKN150 BKN200
     FM200400 26016G26KT P6SM FEW130 BKN220
     FM201200 27020G35KT P6SM FEW130 SCT220=

USA.gov is the U.S. government's official web portal to all federal, state and local government web resources and services.